[[{"header":{"parameterUnit":"m.s-1","parameterCategory":2,"la1":30.2992,"la2":30.254,"lo1":-89.0895,"lo2":-89.0443,"dy":0.0025,"dx":0.0025,"nx":19,"ny":19,"refTime":"2026-03-24T21:00:00:Z","depth":"0","parameterNumber":2,"parameterNumberName":"U-component_of_CURRENTS"},"data":[0,0,0,-0.3676,-0.3679,-0.3849,-0.385,-0.4007,-0.4008,0,0,0,0,0,0,0,0,0,0,0,-0.3609,-0.361,-0.3676,-0.368,-0.3849,-0.385,-0.4007,-0.4008,0,0,0,0,0,0,0,0,0,0,0,-0.3609,-0.361,-0.3611,-0.368,-0.3849,-0.385,-0.4007,-0.3895,0,0,0,0,0,0,0,0,0,0,-0.3739,-0.3659,-0.3609,-0.3611,-0.3681,-0.3849,-0.385,-0.3891,-0.3902,-0.3911,0,-0.3931,0,-0.3973,-0.4017,-0.4017,0,0,0,-0.3687,-0.3649,-0.3719,-0.3611,-0.3683,-0.3849,-0.3775,-0.3898,-0.3911,-0.3926,-0.3934,-0.3941,-0.3976,-0.4018,-0.4018,-0.4096,-0.4096,0,0,-0.3678,-0.3619,-0.371,-0.3727,-0.3719,-0.3769,-0.378,-0.3906,-0.39,-0.3935,-0.3945,-0.3979,-0.4019,-0.4019,-0.4097,-0.4096,0,0,0,-0.3646,-0.3612,-0.368,-0.372,-0.3756,-0.3774,-0.3786,-0.3894,-0.3924,-0.3947,-0.398,-0.4019,-0.4021,-0.4097,-0.4097,-0.3991,0,0,0,-0.3641,-0.3594,-0.3676,-0.364,-0.3753,-0.3829,-0.3771,-0.3915,-0.3931,-0.398,-0.4019,-0.4022,-0.4097,-0.4097,-0.3994,-0.3932,0,0,0,-0.3603,-0.359,-0.3613,-0.3637,-0.3711,-0.3829,-0.3866,-0.392,-0.3951,-0.4017,-0.4022,-0.4097,-0.4097,-0.3997,-0.3938,-0.38,0,0,0,-0.3534,-0.3574,-0.361,-0.367,-0.371,-0.384,-0.3866,-0.3953,-0.4011,-0.402,-0.4097,-0.4097,-0.3998,-0.3942,-0.3805,-0.3623,-0.3584,0,0,-0.3556,-0.3574,-0.3618,-0.3657,-0.3757,-0.3817,-0.3872,-0.3948,-0.4004,-0.4053,-0.4056,-0.3993,-0.3939,-0.3801,-0.3611,-0.3572,0,0,0,-0.3609,-0.362,-0.3667,-0.3724,-0.383,-0.3852,-0.3938,-0.3934,-0.3964,-0.4037,-0.4018,-0.3988,-0.3903,-0.3806,-0.3776,-0.3702,-0.4096,-0.4096,-0.4096,-0.3498,-0.3589,-0.3631,-0.3728,-0.3791,-0.3873,-0.3867,-0.3873,-0.3952,-0.3926,-0.3921,-0.3772,-0.3671,-0.3646,-0.3574,-0.3952,-0.3952,-0.3952,-0.3951,-0.3451,-0.343,-0.3544,-0.361,-0.367,-0.3708,-0.375,-0.3771,-0.3716,-0.3821,-0.3744,-0.3726,-0.3605,-0.3541,-0.3945,-0.3946,-0.3947,-0.3948,-0.3948,-0.3276,-0.3274,-0.3349,-0.3403,-0.344,-0.3547,-0.3485,-0.3554,-0.3598,-0.3556,-0.3432,-0.3432,-0.3352,-0.3517,-0.3516,-0.3516,-0.3515,-0.3514,-0.3514,-0.3017,-0.3105,-0.3083,-0.3173,-0.3188,-0.3212,-0.3304,-0.3279,-0.3252,-0.3286,-0.3284,-0.3283,-0.3639,-0.3628,-0.35,-0.3503,-0.3504,-0.3506,-0.3507,-0.2746,-0.2802,-0.2764,-0.2776,-0.2829,-0.2753,-0.2912,-0.2866,-0.286,-0.2796,-0.2845,-0.3116,-0.3114,-0.3139,-0.3117,-0.2864,-0.2864,-0.2864,-0.2864,-0.2519,-0.2562,-0.2484,-0.2461,-0.2447,-0.2524,-0.2368,-0.2408,-0.246,-0.2437,-0.2543,-0.2614,-0.2644,-0.2622,-0.2659,-0.2632,-0.2261,-0.2261,-0.226,-0.2321,-0.2351,-0.2223,-0.2275,-0.2279,-0.2254,-0.2054,-0.2003,-0.2118,-0.2238,-0.2469,-0.2494,-0.2616,-0.2668,-0.2662,-0.2719,-0.2688,0,0]},{"header":{"parameterUnit":"m.s-1","parameterCategory":2,"la1":30.2992,"la2":30.254,"lo1":-89.0895,"lo2":-89.0443,"dy":0.0025,"dx":0.0025,"nx":19,"ny":19,"refTime":"2026-03-24T21:00:00:Z","depth":"0","parameterNumber":3,"parameterNumberName":"V-component_of_CURRENTS"},"data":[0,0,0,-0.0066,-0.0062,0.019,0.0192,0.0571,0.0574,0,0,0,0,0,0,0,0,0,0,0,-0.0161,-0.0161,-0.0067,-0.0062,0.019,0.0192,0.0571,0.0574,0,0,0,0,0,0,0,0,0,0,0,-0.0162,-0.0161,-0.016,-0.0061,0.019,0.0192,0.057,0.0375,0,0,0,0,0,0,0,0,0,0,0.0127,0.0007,-0.0161,-0.016,-0.006,0.0189,0.0192,0.0366,0.0387,0.046,0,0.0468,0,0.0518,0.0597,0.0598,0,0,0,-0.0021,-0.0012,0.006,-0.016,-0.0058,0.0189,0.0088,0.0378,0.0402,0.0489,0.0473,0.0488,0.0524,0.0599,0.0601,0.078,0.0779,0,0,-0.0035,-0.0104,0.0042,0.0074,-0.0031,0.0079,0.0095,0.0392,0.04,0.0475,0.0497,0.053,0.0602,0.0604,0.078,0.0779,0,0,0,-0.0103,-0.0114,-0.005,0.0058,0.0093,0.0086,0.0104,0.0388,0.0409,0.0501,0.0535,0.0604,0.0608,0.0781,0.078,0.0585,0,0,0,-0.0109,-0.0156,-0.0057,-0.0093,0.0085,0.0233,0.0092,0.0388,0.0423,0.0533,0.0604,0.0611,0.0782,0.078,0.0592,0.0519,0,0,0,-0.0166,-0.0161,-0.0144,-0.0098,-0.0006,0.0229,0.0269,0.0397,0.0443,0.0599,0.0612,0.0782,0.0781,0.0598,0.053,0.0502,0,0,0,-0.0225,-0.0253,-0.0147,-0.0169,-0.0009,0.0088,0.0268,0.0369,0.0481,0.0605,0.0781,0.078,0.06,0.0536,0.0507,0.0557,0.0534,0,0,-0.0301,-0.0264,-0.0279,-0.0178,-0.0151,0.0059,0.0118,0.0339,0.0491,0.0697,0.0702,0.0589,0.0531,0.0503,0.0473,0.0453,0,0,0,-0.033,-0.0348,-0.032,-0.0276,-0.0156,-0.0027,0.0185,0.029,0.0465,0.0546,0.0615,0.0585,0.0573,0.0616,0.06,0.0869,0.0773,0.0773,0.0774,-0.0511,-0.0448,-0.0464,-0.0368,-0.0292,-0.0077,0.0029,0.0221,0.0369,0.04,0.0443,0.0314,0.0355,0.0345,0.0619,0.0459,0.0458,0.0458,0.0457,-0.0653,-0.0661,-0.057,-0.0568,-0.041,-0.0328,-0.0077,0.0034,0.0187,0.0305,0.0303,0.0429,0.0316,0.0616,0.0445,0.0447,0.0449,0.045,0.0451,-0.0783,-0.0769,-0.0762,-0.0728,-0.0651,-0.0465,-0.0375,-0.0186,0.0011,0.0017,0.0147,0.0152,0.0407,0.0027,0.0026,0.0026,0.0026,0.0025,0.0025,-0.0901,-0.0882,-0.0919,-0.0878,-0.0852,-0.077,-0.0542,-0.0436,-0.0213,-0.004,-0.0037,0.0404,0.0185,0.0192,0.0017,0.0019,0.002,0.002,0.0021,-0.1017,-0.101,-0.1071,-0.1078,-0.1031,-0.0983,-0.08,-0.0539,-0.0401,-0.0286,0.0269,-0.0033,0.0054,0.007,0.0078,-0.0117,-0.0117,-0.0117,-0.0117,-0.1087,-0.1091,-0.1159,-0.1188,-0.1187,-0.1068,-0.0908,-0.0581,-0.004,0.0274,0.0362,0.0491,0.0485,0.0607,0.0611,0.0635,0.0586,0.0588,0.0589,-0.1134,-0.1152,-0.1207,-0.1236,-0.1242,-0.1143,-0.0942,-0.0493,0.0299,0.0646,0.0721,0.0691,0.0912,0.088,0.1102,0.1087,0.1137,0,0]}],[{"header":{"parameterUnit":"m.s-1","parameterCategory":2,"la1":30.2992,"la2":30.254,"lo1":-89.0895,"lo2":-89.0443,"dy":0.0025,"dx":0.0025,"nx":19,"ny":19,"refTime":"2026-03-24T21:00:00:Z","depth":"2","parameterNumber":2,"parameterNumberName":"U-component_of_CURRENTS"},"data":[0,0,0,-0.2884,-0.2888,-0.3057,-0.3058,-0.3262,-0.3263,0,0,0,0,0,0,0,0,0,0,0,-0.2826,-0.2827,-0.2884,-0.2888,-0.3057,-0.3058,-0.3261,-0.3264,0,0,0,0,0,0,0,0,0,0,0,-0.2825,-0.2827,-0.2828,-0.2889,-0.3057,-0.3058,-0.3261,-0.3136,0,0,0,0,0,0,0,0,0,0,-0.2973,-0.2898,-0.2826,-0.2828,-0.289,-0.3057,-0.3058,-0.313,-0.3144,-0.3181,0,-0.3214,0,-0.3245,-0.3277,-0.3278,0,0,0,-0.2887,-0.2887,-0.2957,-0.2829,-0.2891,-0.3057,-0.2981,-0.3138,-0.3153,-0.3199,-0.3217,-0.3225,-0.3248,-0.3278,-0.3279,-0.3391,-0.3391,0,0,-0.2878,-0.2834,-0.2946,-0.2967,-0.2945,-0.2975,-0.2986,-0.3147,-0.3153,-0.3218,-0.323,-0.3252,-0.3279,-0.3281,-0.3391,-0.3391,0,0,0,-0.2851,-0.2827,-0.2893,-0.2958,-0.2991,-0.298,-0.2993,-0.3145,-0.3175,-0.3233,-0.3254,-0.3281,-0.3283,-0.3392,-0.3391,-0.3369,0,0,0,-0.2846,-0.2813,-0.2889,-0.2861,-0.2988,-0.3067,-0.2986,-0.3164,-0.3183,-0.3253,-0.3281,-0.3285,-0.3392,-0.3391,-0.337,-0.3305,0,0,0,-0.2816,-0.2808,-0.2837,-0.2859,-0.2936,-0.3065,-0.3103,-0.3168,-0.3196,-0.3278,-0.3286,-0.3392,-0.3391,-0.3372,-0.3309,-0.324,0,0,0,-0.2754,-0.2795,-0.2835,-0.2879,-0.2934,-0.3052,-0.3102,-0.32,-0.3269,-0.3282,-0.3392,-0.3391,-0.3372,-0.3311,-0.3243,-0.3066,-0.3038,0,0,-0.2771,-0.2795,-0.282,-0.2862,-0.2971,-0.3028,-0.3111,-0.3227,-0.3264,-0.3339,-0.3342,-0.337,-0.3309,-0.324,-0.3029,-0.3001,0,0,0,-0.2802,-0.2821,-0.2864,-0.2928,-0.3026,-0.3083,-0.3199,-0.3225,-0.3289,-0.3304,-0.3363,-0.3324,-0.3282,-0.3182,-0.316,-0.3388,-0.3388,-0.3388,-0.3388,-0.2703,-0.2786,-0.2836,-0.2944,-0.3017,-0.3139,-0.3166,-0.3211,-0.3298,-0.3298,-0.3304,-0.3225,-0.312,-0.3101,-0.333,-0.333,-0.333,-0.333,-0.333,-0.267,-0.2682,-0.2788,-0.287,-0.2964,-0.3036,-0.3126,-0.3174,-0.3185,-0.3254,-0.3216,-0.3159,-0.3076,-0.3328,-0.3328,-0.3329,-0.3329,-0.3329,-0.3329,-0.2572,-0.2596,-0.2658,-0.2746,-0.2822,-0.2945,-0.2954,-0.3047,-0.3106,-0.3097,-0.2985,-0.2984,-0.3174,-0.3102,-0.3101,-0.3101,-0.31,-0.31,-0.31,-0.2423,-0.2502,-0.2506,-0.2615,-0.2649,-0.2715,-0.2841,-0.2852,-0.2861,-0.2891,-0.289,-0.3146,-0.3154,-0.3159,-0.3091,-0.3092,-0.3093,-0.3094,-0.3095,-0.2288,-0.2321,-0.2318,-0.2343,-0.2416,-0.2382,-0.2556,-0.2547,-0.2582,-0.2531,-0.276,-0.2771,-0.2741,-0.2757,-0.2752,-0.2582,-0.2582,-0.2582,-0.2582,-0.2144,-0.2179,-0.2117,-0.2111,-0.2131,-0.2211,-0.2096,-0.2122,-0.2246,-0.2263,-0.2277,-0.2311,-0.2338,-0.2289,-0.2317,-0.2305,-0.2017,-0.2017,-0.2016,-0.2,-0.2019,-0.1916,-0.1959,-0.1988,-0.1984,-0.1796,-0.1676,-0.1771,-0.1998,-0.2224,-0.2535,-0.2627,-0.2653,-0.2618,-0.2646,-0.2642,0,0]},{"header":{"parameterUnit":"m.s-1","parameterCategory":2,"la1":30.2992,"la2":30.254,"lo1":-89.0895,"lo2":-89.0443,"dy":0.0025,"dx":0.0025,"nx":19,"ny":19,"refTime":"2026-03-24T21:00:00:Z","depth":"2","parameterNumber":3,"parameterNumberName":"V-component_of_CURRENTS"},"data":[0,0,0,-0.0363,-0.036,-0.0193,-0.0192,0.0068,0.007,0,0,0,0,0,0,0,0,0,0,0,-0.0432,-0.0431,-0.0363,-0.0359,-0.0193,-0.0192,0.0067,0.007,0,0,0,0,0,0,0,0,0,0,0,-0.0432,-0.0431,-0.0431,-0.0359,-0.0193,-0.0192,0.0067,-0.0068,0,0,0,0,0,0,0,0,0,0,-0.0234,-0.0311,-0.0432,-0.0431,-0.0358,-0.0193,-0.0192,-0.0075,-0.0059,0.0002,0,0.0014,0,0.0051,0.0088,0.0089,0,0,0,-0.0348,-0.0324,-0.0276,-0.043,-0.0356,-0.0194,-0.0265,-0.0066,-0.0049,0.0023,0.0018,0.0028,0.0056,0.0089,0.0091,0.0184,0.0183,0,0,-0.0358,-0.0396,-0.0289,-0.0266,-0.0329,-0.027,-0.026,-0.0056,-0.0045,0.0019,0.0035,0.006,0.0091,0.0093,0.0185,0.0184,0,0,0,-0.0391,-0.0403,-0.036,-0.0277,-0.0248,-0.0266,-0.0254,-0.0055,-0.004,0.0037,0.0063,0.0093,0.0096,0.0186,0.0184,0.0107,0,0,0,-0.0396,-0.0422,-0.0365,-0.0385,-0.0253,-0.0156,-0.0257,-0.0055,-0.003,0.0062,0.0093,0.0098,0.0187,0.0185,0.0111,0.0054,0,0,0,-0.0437,-0.0426,-0.0412,-0.0388,-0.0319,-0.0158,-0.0132,-0.0049,-0.0014,0.0089,0.0099,0.0188,0.0185,0.0115,0.0062,0.0084,0,0,0,-0.0473,-0.0496,-0.0414,-0.0435,-0.0321,-0.0275,-0.0133,-0.0068,0.0005,0.0094,0.0187,0.0185,0.0116,0.0066,0.0087,0.0138,0.0128,0,0,-0.0533,-0.0503,-0.0521,-0.0444,-0.0441,-0.0296,-0.0262,-0.0096,-0.0006,0.0129,0.0131,0.011,0.0062,0.0085,0.0009,0.0003,0,0,0,-0.0562,-0.0573,-0.056,-0.0532,-0.0462,-0.0371,-0.0217,-0.013,-0.0008,0.0028,0.0086,0.0057,0.0076,0.0112,0.0106,0.0174,0.0174,0.0175,0.0175,-0.0678,-0.0648,-0.067,-0.0614,-0.057,-0.0413,-0.0332,-0.0189,-0.0079,-0.0052,-0.0022,-0.0088,-0.0054,-0.0057,-0.0029,-0.0029,-0.003,-0.003,-0.003,-0.0786,-0.08,-0.0746,-0.0758,-0.0649,-0.0595,-0.04,-0.0302,-0.0169,-0.0105,-0.0082,0.0004,-0.0068,-0.0037,-0.0035,-0.0034,-0.0034,-0.0033,-0.0033,-0.087,-0.0868,-0.087,-0.0866,-0.0813,-0.0683,-0.0598,-0.0443,-0.0273,-0.0249,-0.014,-0.0137,-0.01,-0.0211,-0.0211,-0.0211,-0.0211,-0.0211,-0.0211,-0.0946,-0.0942,-0.0981,-0.0965,-0.0954,-0.0891,-0.0702,-0.0598,-0.0385,-0.0242,-0.0239,-0.0148,-0.0142,-0.011,-0.0214,-0.0214,-0.0213,-0.0213,-0.0213,-0.1033,-0.1029,-0.1092,-0.1106,-0.1085,-0.104,-0.0879,-0.0622,-0.0477,-0.0361,-0.0202,-0.0201,-0.0158,-0.0152,-0.0121,-0.0221,-0.0221,-0.0221,-0.0221,-0.1084,-0.109,-0.1165,-0.1199,-0.1204,-0.1103,-0.0937,-0.0639,-0.0349,-0.0191,-0.0192,-0.0154,-0.0154,-0.0108,-0.0103,-0.0069,-0.0156,-0.0156,-0.0156,-0.1126,-0.1147,-0.1205,-0.1239,-0.1251,-0.1156,-0.0966,-0.0573,-0.0185,-0.0155,-0.0202,-0.0212,-0.0157,-0.0157,-0.0083,-0.0077,-0.0021,0,0]}],[{"header":{"parameterUnit":"m.s-1","parameterCategory":2,"la1":30.2992,"la2":30.254,"lo1":-89.0895,"lo2":-89.0443,"dy":0.0025,"dx":0.0025,"nx":19,"ny":19,"refTime":"2026-03-24T21:00:00:Z","depth":"4","parameterNumber":2,"parameterNumberName":"U-component_of_CURRENTS"},"data":[0,0,0,-0.1664,-0.1668,-0.186,-0.1861,-0.2016,-0.2017,0,0,0,0,0,0,0,0,0,0,0,-0.16,-0.1601,-0.1664,-0.1668,-0.186,-0.1861,-0.2016,-0.2017,0,0,0,0,0,0,0,0,0,0,0,-0.1599,-0.16,-0.1602,-0.1669,-0.186,-0.1861,-0.2016,-0.1896,0,0,0,0,0,0,0,0,0,0,-0.1722,-0.1673,-0.16,-0.1602,-0.167,-0.186,-0.1861,-0.1891,-0.1903,-0.19,0,-0.1932,0,-0.1972,-0.2024,-0.2025,0,0,0,-0.1678,-0.1663,-0.1711,-0.1602,-0.1672,-0.1859,-0.1776,-0.1899,-0.1912,-0.1916,-0.1935,-0.1941,-0.1974,-0.2025,-0.2026,-0.2132,-0.2132,0,0,-0.1668,-0.1638,-0.1702,-0.172,-0.1723,-0.177,-0.1782,-0.1908,-0.1922,-0.1935,-0.1945,-0.1977,-0.2026,-0.2027,-0.2132,-0.2132,0,0,0,-0.1631,-0.163,-0.1678,-0.1712,-0.1751,-0.1775,-0.1789,-0.1917,-0.1932,-0.1947,-0.1979,-0.2026,-0.2028,-0.2131,-0.2132,-0.2168,0,0,0,-0.1625,-0.1608,-0.1673,-0.1658,-0.1749,-0.1849,-0.1795,-0.1924,-0.1939,-0.1978,-0.2027,-0.2029,-0.2131,-0.2132,-0.2167,-0.2155,0,0,0,-0.1591,-0.1605,-0.1627,-0.1655,-0.1734,-0.1849,-0.1873,-0.1929,-0.1957,-0.2025,-0.2029,-0.2131,-0.2131,-0.2165,-0.2153,-0.2209,0,0,0,-0.1554,-0.1582,-0.1626,-0.1692,-0.1732,-0.1857,-0.1873,-0.1977,-0.204,-0.2027,-0.2131,-0.2132,-0.2165,-0.2152,-0.2207,-0.1931,0,0,0,-0.1562,-0.1583,-0.1627,-0.1671,-0.1772,-0.1831,-0.1936,-0.2022,-0.2044,-0.2084,-0.2088,-0.2167,-0.2153,-0.2209,-0.198,0,0,0,0,-0.1614,-0.165,-0.1693,-0.177,-0.1855,-0.1932,-0.2022,-0.2052,-0.2124,-0.2083,-0.2173,-0.2162,-0.2197,-0.203,-0.2136,-0.2135,-0.2135,-0.2135,-0.2135,-0.1611,-0.1671,-0.1737,-0.1822,-0.1902,-0.2011,-0.2071,-0.2122,-0.2154,-0.2186,-0.2198,-0.2267,-0.2092,-0.2219,-0.2219,-0.2219,-0.2219,-0.222,-0.222,-0.1642,-0.1672,-0.1762,-0.1847,-0.1925,-0.2022,-0.2121,-0.2159,-0.2234,-0.2228,-0.2262,-0.2085,-0.2223,-0.2223,-0.2222,-0.2222,-0.2221,-0.2221,-0.2221,-0.1633,-0.1633,-0.1719,-0.1817,-0.1921,-0.2036,-0.2112,-0.2206,-0.2257,-0.229,-0.2154,-0.2296,-0.2288,-0.2344,-0.2345,-0.2345,-0.2345,-0.2345,-0.2345,-0.1552,-0.162,-0.1668,-0.1793,-0.1854,-0.1971,-0.213,-0.2172,-0.2269,-0.2147,-0.2323,-0.2309,-0.2305,-0.2296,-0.2348,-0.2348,-0.2347,-0.2347,-0.2347,-0.1481,-0.1528,-0.1572,-0.1633,-0.176,-0.1827,-0.2033,-0.2058,-0.209,-0.2041,-0.2076,-0.2088,-0.205,-0.2053,-0.2033,-0.201,-0.2006,-0.2003,0,-0.1399,-0.1437,-0.1453,-0.1496,-0.155,-0.1715,-0.17,-0.1791,-0.1865,-0.1794,-0.2087,-0.2126,-0.2132,-0.209,-0.2086,-0.2061,0,0,0,-0.1318,-0.134,-0.13,-0.1373,-0.1424,-0.151,-0.1677,-0.1633,-0.1862,-0.1807,-0.1918,-0.1941,-0.2202,-0.2358,-0.2331,-0.2326,-0.2309,0,0]},{"header":{"parameterUnit":"m.s-1","parameterCategory":2,"la1":30.2992,"la2":30.254,"lo1":-89.0895,"lo2":-89.0443,"dy":0.0025,"dx":0.0025,"nx":19,"ny":19,"refTime":"2026-03-24T21:00:00:Z","depth":"4","parameterNumber":3,"parameterNumberName":"V-component_of_CURRENTS"},"data":[0,0,0,-0.0427,-0.0426,-0.0401,-0.0401,-0.0385,-0.0384,0,0,0,0,0,0,0,0,0,0,0,-0.045,-0.045,-0.0427,-0.0426,-0.0401,-0.0401,-0.0385,-0.0384,0,0,0,0,0,0,0,0,0,0,0,-0.045,-0.045,-0.045,-0.0426,-0.0401,-0.0401,-0.0385,-0.0401,0,0,0,0,0,0,0,0,0,0,-0.0425,-0.0437,-0.045,-0.045,-0.0426,-0.0401,-0.0401,-0.0402,-0.04,-0.0399,0,-0.0401,0,-0.0384,-0.0383,-0.0383,0,0,0,-0.0432,-0.0438,-0.0432,-0.045,-0.0426,-0.0401,-0.0414,-0.0401,-0.0399,-0.0397,-0.0401,-0.0399,-0.0384,-0.0383,-0.0383,-0.0405,-0.0406,0,0,-0.0433,-0.0443,-0.0433,-0.0431,-0.0427,-0.0415,-0.0413,-0.04,-0.0401,-0.04,-0.0399,-0.0383,-0.0383,-0.0383,-0.0405,-0.0406,0,0,0,-0.0434,-0.0444,-0.0438,-0.0432,-0.0422,-0.0414,-0.0412,-0.0402,-0.04,-0.0398,-0.0383,-0.0383,-0.0383,-0.0405,-0.0405,-0.0419,0,0,0,-0.0435,-0.0443,-0.0438,-0.0443,-0.0422,-0.0407,-0.0414,-0.0402,-0.0399,-0.0383,-0.0383,-0.0382,-0.0404,-0.0405,-0.0418,-0.0432,0,0,0,-0.0449,-0.0444,-0.0444,-0.0444,-0.0428,-0.0407,-0.0404,-0.0401,-0.0389,-0.0383,-0.0382,-0.0404,-0.0405,-0.0416,-0.043,-0.0363,0,0,0,-0.0456,-0.0477,-0.0445,-0.0472,-0.0429,-0.0441,-0.0404,-0.0413,-0.0415,-0.0383,-0.0404,-0.0405,-0.0416,-0.0429,-0.0363,-0.038,0,0,0,-0.049,-0.0481,-0.0501,-0.0472,-0.05,-0.0444,-0.0462,-0.0446,-0.0426,-0.041,-0.041,-0.0418,-0.043,-0.0363,-0.0434,0,0,0,0,-0.0518,-0.0533,-0.0537,-0.0544,-0.0533,-0.0515,-0.0486,-0.0458,-0.044,-0.0427,-0.0433,-0.0441,-0.0397,-0.0409,-0.041,-0.041,-0.0409,-0.0409,-0.0409,-0.0577,-0.0578,-0.0612,-0.061,-0.061,-0.0566,-0.0542,-0.05,-0.0476,-0.0469,-0.0462,-0.044,-0.0458,-0.047,-0.047,-0.047,-0.047,-0.047,-0.047,-0.0648,-0.067,-0.0666,-0.0702,-0.0673,-0.0676,-0.0599,-0.056,-0.048,-0.0485,-0.044,-0.0439,-0.0472,-0.0472,-0.0471,-0.0471,-0.0471,-0.0471,-0.0471,-0.0694,-0.0701,-0.0728,-0.0769,-0.0772,-0.0737,-0.0691,-0.0612,-0.0512,-0.0472,-0.0425,-0.043,-0.0411,-0.0423,-0.0423,-0.0423,-0.0423,-0.0423,-0.0423,-0.0727,-0.0747,-0.08,-0.0832,-0.0852,-0.0838,-0.0732,-0.065,-0.0528,-0.0447,-0.0458,-0.0423,-0.0425,-0.0408,-0.0419,-0.042,-0.042,-0.0421,-0.0421,-0.0772,-0.0787,-0.0862,-0.09,-0.0934,-0.0906,-0.0821,-0.0622,-0.0507,-0.0398,-0.0406,-0.0408,-0.0389,-0.039,-0.0372,-0.0373,-0.0373,-0.0373,0,-0.0796,-0.081,-0.0907,-0.0964,-0.0983,-0.0939,-0.08,-0.0674,-0.0502,-0.0504,-0.0509,-0.0528,-0.0526,-0.0517,-0.0518,-0.0505,0,0,0,-0.082,-0.0848,-0.0914,-0.0976,-0.1,-0.0849,-0.0757,-0.0679,-0.0544,-0.0422,-0.0378,-0.0377,-0.0464,-0.041,-0.0383,-0.0385,-0.0356,0,0]}]]